シュヴァスマン-ヴァハマン第1彗星

29P/Schwassmann-Wachmann 1 (2004)

English version
Home page
Total 6,336 html files since Dec. 4, 1995
Updated on June 14, 2008

---------------------------------------------------------------------

・ プロフィール

・ 写真集

・ 軌道要素

Epoch 2004 July 14.0 TT = JDT 2453200.5
T 2004 July 10.8283 TT                                  Nakano
q   5.723578             (2000.0)            P               Q
n   0.0672626      Peri.   48.9562      +0.9921460      -0.0356422
a   5.988072       Node   312.7156      -0.0284829      +0.8689890
e   0.044170       Incl.    9.3921      +0.1217995      +0.4935462
P  14.7
From 1941 observations 1902-2001, mean residual 0".9.

・ 星図

・ 光度変化

        m1 = 4.0 + 5 logΔ + 7.5 log r

---------------------------------------------------------------------

軌道要素は中野主一氏の計算によるもので、MPCのEphemerides and Orbital Elementsに掲載されたものです。
星図は StellaNavigator Ver.2.0 for Windows (アストロアーツ 編著 / アスキー出版局刊) で作成したものです。
光度グラフはComet for Windowsで作成したものです。

---------------------------------------------------------------------

Copyright(C) 1995-2008 Seiichi Yoshida (comet@aerith.net). All rights reserved.